• în Republica Moldova
  • Lista ţărilor
  • Pe 7 zile
  • Temperatura apei
  • Hartă satelitară
  • Meteo pe hartă
  • Widget-uri
  • user-avatar
    Intrare

    Meteo pe oră la Shaki

    Astăzi, 24 Aprilie, Luni

    Timp Temperatura Precipitaţii Vânt Presiune Umiditate
    00:00 +14°C° 0 mm 2 m/s 727 mmHg 69%
    01:00 +13°C° 0 mm 3 m/s 727 mmHg 68%
    02:00 +13°C° 0 mm 4 m/s 727 mmHg 67%
    03:00 +12°C° 0 mm 7 m/s 728 mmHg 65%
    04:00 +12°C° 0 mm 7 m/s 728 mmHg 62%
    05:00 +12°C° 0 mm 7 m/s 729 mmHg 58%
    06:00 +13°C° 0 mm 6 m/s 729 mmHg 54%
    07:00 +15°C° 0 mm 7 m/s 730 mmHg 49%
    08:00 +17°C° 0 mm 7 m/s 730 mmHg 43%
    09:00 +20°C° 0 mm 7 m/s 731 mmHg 37%
    10:00 +21°C° 0 mm 7 m/s 731 mmHg 35%
    11:00 +22°C° 0 mm 6 m/s 731 mmHg 33%
    12:00 +23°C° 0 mm 6 m/s 731 mmHg 31%
    13:00 +22°C° 0,1 mm 6 m/s 731 mmHg 32%
    14:00 +22°C° 0,1 mm 5 m/s 732 mmHg 34%
    15:00 +21°C° 0,1 mm 5 m/s 732 mmHg 35%
    16:00 +20°C° 0 mm 4 m/s 733 mmHg 38%
    17:00 +19°C° 0 mm 4 m/s 733 mmHg 41%
    18:00 +18°C° 0 mm 3 m/s 734 mmHg 44%
    19:00 +16°C° 0 mm 3 m/s 734 mmHg 45%
    20:00 +14°C° 0 mm 3 m/s 735 mmHg 46%
    21:00 +12°C° 0 mm 3 m/s 736 mmHg 47%
    22:00 +12°C° 0 mm 3 m/s 736 mmHg 48%
    23:00 +12°C° 0 mm 2 m/s 736 mmHg 48%

    Mâine, 25 Aprilie, Marţi

    Timp Temperatura Precipitaţii Vânt Presiune Umiditate
    00:00 +10°C° 0 mm 2 m/s 736 mmHg 49%
    01:00 +10°C° 0 mm 2 m/s 736 mmHg 51%
    02:00 +9°C° 0 mm 2 m/s 737 mmHg 53%
    03:00 +8°C° 0 mm 2 m/s 737 mmHg 56%
    04:00 +9°C° 0 mm 2 m/s 737 mmHg 54%
    05:00 +9°C° 0 mm 2 m/s 738 mmHg 52%
    06:00 +10°C° 0 mm 2 m/s 738 mmHg 50%
    07:00 +12°C° 0 mm 3 m/s 739 mmHg 43%
    08:00 +14°C° 0 mm 4 m/s 739 mmHg 37%
    09:00 +16°C° 0 mm 5 m/s 740 mmHg 31%
    10:00 +16°C° 0 mm 5 m/s 740 mmHg 29%
    11:00 +18°C° 0 mm 4 m/s 740 mmHg 27%
    12:00 +19°C° 0 mm 4 m/s 740 mmHg 26%
    13:00 +19°C° 0 mm 4 m/s 740 mmHg 27%
    14:00 +19°C° 0 mm 4 m/s 740 mmHg 28%
    15:00 +18°C° 0 mm 4 m/s 740 mmHg 29%
    16:00 +17°C° 0 mm 4 m/s 741 mmHg 31%
    17:00 +16°C° 0 mm 3 m/s 741 mmHg 34%
    18:00 +14°C° 0 mm 3 m/s 742 mmHg 37%
    19:00 +13°C° 0 mm 2 m/s 743 mmHg 40%
    20:00 +10°C° 0 mm 2 m/s 744 mmHg 43%
    21:00 +9°C° 0 mm 2 m/s 744 mmHg 46%
    22:00 +8°C° 0 mm 2 m/s 745 mmHg 51%
    23:00 +8°C° 0 mm 2 m/s 745 mmHg 56%

    Poimâine, 26 Aprilie, Miercuri

    Timp Temperatura Precipitaţii Vânt Presiune Umiditate
    00:00 +7°C° 0 mm 2 m/s 745 mmHg 60%
    01:00 +7°C° 0 mm 2 m/s 745 mmHg 64%
    02:00 +6°C° 0 mm 2 m/s 745 mmHg 68%
    03:00 +7°C° 0 mm 1 m/s 745 mmHg 72%
    04:00 +7°C° 0 mm 1 m/s 746 mmHg 71%
    05:00 +8°C° 0 mm 1 m/s 746 mmHg 69%
    06:00 +9°C° 0 mm 1 m/s 747 mmHg 67%
    07:00 +9°C° 0 mm 2 m/s 747 mmHg 60%
    08:00 +11°C° 0 mm 3 m/s 747 mmHg 52%
    09:00 +13°C° 0 mm 4 m/s 747 mmHg 44%
    10:00 +14°C° 0 mm 4 m/s 747 mmHg 43%
    11:00 +14°C° 0 mm 4 m/s 746 mmHg 41%
    12:00 +15°C° 0 mm 5 m/s 746 mmHg 40%
    13:00 +16°C° 0 mm 5 m/s 746 mmHg 40%
    14:00 +16°C° 0 mm 5 m/s 745 mmHg 40%
    15:00 +16°C° 0 mm 5 m/s 745 mmHg 40%
    16:00 +15°C° 0 mm 4 m/s 745 mmHg 44%
    17:00 +14°C° 0 mm 4 m/s 745 mmHg 48%
    18:00 +13°C° 0 mm 4 m/s 745 mmHg 52%
    19:00 +11°C° 0 mm 3 m/s 746 mmHg 58%
    20:00 +10°C° 0 mm 3 m/s 746 mmHg 64%
    21:00 +8°C° 0 mm 2 m/s 747 mmHg 70%
    22:00 +7°C° 0 mm 2 m/s 746 mmHg 72%
    23:00 +7°C° 0 mm 2 m/s 746 mmHg 74%

    27 Aprilie, Joi

    Timp Temperatura Precipitaţii Vânt Presiune Umiditate
    00:00 +6°C° 0 mm 2 m/s 746 mmHg 75%
    01:00 +6°C° 0 mm 2 m/s 746 mmHg 76%
    02:00 +6°C° 0 mm 1 m/s 745 mmHg 77%
    03:00 +6°C° 0 mm 1 m/s 745 mmHg 77%
    04:00 +7°C° 0 mm 1 m/s 745 mmHg 74%
    05:00 +8°C° 0 mm 1 m/s 745 mmHg 70%
    06:00 +8°C° 0 mm 1 m/s 745 mmHg 66%
    07:00 +11°C° 0 mm 1 m/s 745 mmHg 56%
    08:00 +13°C° 0 mm 2 m/s 745 mmHg 46%
    09:00 +15°C° 0 mm 2 m/s 745 mmHg 35%
    10:00 +16°C° 0 mm 3 m/s 744 mmHg 33%
    11:00 +17°C° 0 mm 3 m/s 744 mmHg 30%
    12:00 +19°C° 0 mm 4 m/s 743 mmHg 28%
    13:00 +19°C° 0 mm 4 m/s 743 mmHg 29%
    14:00 +19°C° 0 mm 4 m/s 743 mmHg 30%
    15:00 +19°C° 0 mm 4 m/s 742 mmHg 31%
    16:00 +18°C° 0 mm 4 m/s 742 mmHg 37%
    17:00 +17°C° 0 mm 4 m/s 743 mmHg 43%
    18:00 +16°C° 0 mm 3 m/s 743 mmHg 49%
    19:00 +13°C° 0 mm 3 m/s 743 mmHg 52%
    20:00 +11°C° 0 mm 3 m/s 744 mmHg 56%
    21:00 +10°C° 0 mm 2 m/s 744 mmHg 60%
    22:00 +9°C° 0 mm 2 m/s 744 mmHg 59%
    23:00 +9°C° 0 mm 2 m/s 744 mmHg 57%

    28 Aprilie, Vineri

    Timp Temperatura Precipitaţii Vânt Presiune Umiditate
    00:00 +9°C° 0 mm 2 m/s 744 mmHg 56%
    01:00 +9°C° 0 mm 2 m/s 743 mmHg 56%
    02:00 +9°C° 0 mm 2 m/s 743 mmHg 57%
    03:00 +9°C° 0 mm 2 m/s 743 mmHg 57%
    04:00 +10°C° 0 mm 2 m/s 743 mmHg 57%
    05:00 +11°C° 0 mm 1 m/s 743 mmHg 57%
    06:00 +12°C° 0 mm 1 m/s 743 mmHg 56%
    07:00 +14°C° 0 mm 1 m/s 743 mmHg 50%
    08:00 +16°C° 0 mm 2 m/s 742 mmHg 43%
    09:00 +18°C° 0 mm 2 m/s 742 mmHg 37%
    10:00 +19°C° 0 mm 2 m/s 742 mmHg 35%
    11:00 +20°C° 0 mm 2 m/s 741 mmHg 32%
    12:00 +21°C° 0 mm 3 m/s 741 mmHg 30%
    13:00 +21°C° 0 mm 3 m/s 740 mmHg 30%
    14:00 +22°C° 0 mm 3 m/s 740 mmHg 30%
    15:00 +22°C° 0 mm 3 m/s 740 mmHg 30%
    16:00 +21°C° 0 mm 2 m/s 740 mmHg 35%
    17:00 +19°C° 0 mm 2 m/s 740 mmHg 40%
    18:00 +18°C° 0 mm 2 m/s 740 mmHg 45%
    19:00 +16°C° 0 mm 2 m/s 740 mmHg 48%
    20:00 +14°C° 0 mm 2 m/s 740 mmHg 51%
    21:00 +13°C° 0 mm 2 m/s 740 mmHg 53%
    22:00 +12°C° 0 mm 2 m/s 740 mmHg 55%
    23:00 +11°C° 0 mm 1 m/s 739 mmHg 57%

    29 Aprilie, Sâmbătă

    Timp Temperatura Precipitaţii Vânt Presiune Umiditate
    00:00 +11°C° 0 mm 1 m/s 739 mmHg 58%
    01:00 +11°C° 0 mm 1 m/s 739 mmHg 58%
    02:00 +11°C° 0 mm 1 m/s 738 mmHg 57%
    03:00 +11°C° 0 mm 1 m/s 738 mmHg 56%
    04:00 +10°C° 0 mm 2 m/s 738 mmHg 53%
    05:00 +12°C° 0 mm 2 m/s 738 mmHg 51%
    06:00 +13°C° 0 mm 2 m/s 738 mmHg 49%
    07:00 +16°C° 0 mm 2 m/s 738 mmHg 42%
    08:00 +18°C° 0 mm 2 m/s 738 mmHg 36%
    09:00 +21°C° 0 mm 2 m/s 738 mmHg 29%
    10:00 +23°C° 0 mm 2 m/s 737 mmHg 27%
    11:00 +24°C° 0 mm 2 m/s 737 mmHg 26%
    12:00 +26°C° 0 mm 2 m/s 736 mmHg 24%
    13:00 +26°C° 0 mm 1 m/s 736 mmHg 24%
    14:00 +26°C° 0 mm 1 m/s 736 mmHg 24%
    15:00 +26°C° 0 mm 1 m/s 735 mmHg 23%
    16:00 +25°C° 0 mm 1 m/s 735 mmHg 29%
    17:00 +23°C° 0 mm 1 m/s 736 mmHg 35%
    18:00 +21°C° 0 mm 1 m/s 736 mmHg 41%
    19:00 +19°C° 0 mm 1 m/s 736 mmHg 41%
    20:00 +16°C° 0 mm 1 m/s 736 mmHg 41%
    21:00 +14°C° 0 mm 1 m/s 736 mmHg 41%
    22:00 +14°C° 0 mm 1 m/s 736 mmHg 41%
    23:00 +13°C° 0 mm 1 m/s 736 mmHg 41%
    Arată mai mult